Location: Santaluz Observatory
(32.9930°N, 117.1510°W)
Time: 12:47:42
(UTC-07:00)

Hubble Space Telescope - Visible Passes

Search period start: 29 July 2016 00:00
Search period end: 08 August 2016 00:00
Orbit: 539 x 543 km, 28.5° (Epoch: 28 July)

Date Brightness Start Highest point End Pass type
(mag) Time Alt. Az. Time Alt. Az. Time Alt. Az.
29 Jul 3.4 05:09:58 10° SSE 05:10:09 10° SSE 05:10:20 10° SSE visible
30 Jul 3.1 04:58:23 10° S 05:00:19 13° SSE 05:02:16 10° SE visible
31 Jul 2.8 04:48:43 13° S 04:50:30 16° SSE 04:53:06 10° ESE visible
01 Aug 2.5 04:39:29 18° S 04:40:41 20° SSE 04:43:43 10° ESE visible
02 Aug 2.2 04:30:15 23° S 04:30:52 23° SSE 04:34:12 10° ESE visible
03 Aug 2.0 04:21:00 27° SSE 04:21:05 27° SSE 04:24:37 10° ESE visible
04 Aug 1.9 04:11:46 31° SSE 04:11:46 31° SSE 04:14:59 10° ESE visible
05 Aug 2.0 04:02:32 30° SE 04:02:32 30° SE 04:05:19 10° ESE visible
06 Aug 2.3 03:53:21 27° SE 03:53:21 27° SE 03:55:37 10° ESE visible
06 Aug 1.3 05:28:48 10° WSW 05:32:43 42° S 05:36:39 10° ESE visible
07 Aug 2.7 03:44:14 22° ESE 03:44:14 22° ESE 03:45:54 10° ESE visible
07 Aug 1.4 05:19:38 13° WSW 05:22:58 39° S 05:26:51 10° ESE visible
